Terug naar catalogus

COSMOS 952 DEB

ActiefLEO
NORAD 44567·DEBRIS·🇷🇺 Russia

Gelanceerd Sep 16, 1977 vanaf Baikonur Cosmodrome

Loading…

Volgende Passages (komende 24 uur)

TLE

VerouderendSource: Space-Track

Epoch: Sep 8, 2026, 07:35 UTC

1 44567U 77088D   26251.31624589  .00000087  00000-0  15249-3 0  9999
2 44567  64.9331 257.4808 0050708 335.1553  38.4827 13.85715526647173

Volg COSMOS 952 DEB in realtime met AllMySat

Download on the App Store